Weather Roundup
Issued by NWS Springfield, MO

Home | Current Version | Previous Version | Text Only | Print | Product List | Glossary On
Versions: 1 2 3 4 5 6 7 8 9 10 11 12 13 14 15 16 17 18 19 20 21 22 23 24 25 26 27 28 29 30 31 32 33 34 35 36 37 38 39 40 41 42 43 44 45 46 47 48 49 50
000
NZUS99 KSGF 301607
HRRSGF

HOURLY WEATHER
NATIONAL WEATHER SERVICE SPRINGFIELD MO
1100 AM CDT MON MAR 30 2015

......SGF CWA......

CITY           SKY/WX    TMP DP  RH WIND       PRES   REMARKS
SPRINGFIELD    SUNNY     60  32  34 SE8       30.21F
JOPLIN         SUNNY     61  34  36 SE8       30.22R
WEST PLAINS    SUNNY     59  33  37 E5        30.23S
ROLLA          MOSUNNY   58  32  37 CALM      30.20R
OSAGE BEACH    MOSUNNY   57  34  41 S5        30.21R
BRANSON        SUNNY     59  32  36 SE12      30.24S

......SURROUNDING SGF CWA......

CITY           SKY/WX    TMP DP  RH WIND       PRES   REMARKS
CHANUTE        SUNNY     63  36  36 S10       30.21R
PARSONS        SUNNY     61  35  37 SE10G17   30.22S
COFFEYVILLE    SUNNY     61  37  41 S10       30.22R
EMPORIA        PTSUNNY   61  30  31 S15       30.18S
GROVE OK       SUNNY     63  41  45 S10       30.23F
ROGERS AR      SUNNY     60  39  45 S12       30.24R
SILOAM SPRINGS SUNNY     61  43  51 S3        30.24S
HARRISON AR    SUNNY     59  37  44 SE12      30.24R
NEAR YELLVILLE SUNNY     59  37  44 E6        30.24R

......KANSAS AND MISSOURI......

CITY           SKY/WX    TMP DP  RH WIND       PRES   REMARKS
KANSAS CTY INT MOSUNNY   62  32  32 SW15      30.15F
DOWNTOWN KC    SUNNY     64  30  27 S8        30.15F
COLUMBIA       SUNNY     60  31  33 SW9       30.19F
SEDALIA        SUNNY     62  37  39 S8        30.19F
ST JOSEPH      NOT AVBL
ST LOUIS       MOSUNNY   61  28  28 SW6       30.20R
SPIRIT OF STL  SUNNY     60  29  30 VRB5      30.20S
KIRKSVILLE     SUNNY     60  30  32 SW10G16   30.15F
WICHITA        MOSUNNY   63  31  30 S12       30.19S
TOPEKA         SUNNY     62  33  33 SW15G22   30.16F
OLATHE         SUNNY     61  36  39 SW10      30.17S

......TENNESSEE......

CITY           SKY/WX    TMP DP  RH WIND       PRES   REMARKS
MEMPHIS        MOSUNNY   64  39  39 NE7       30.24F
NASHVILLE      SUNNY     62  31  31 N12       30.22R

......ARKANSAS.......

CITY           SKY/WX    TMP DP  RH WIND       PRES   REMARKS
FAYETTEVILLE   SUNNY     62  45  53 MISG      30.22F
FT SMITH       SUNNY     64  45  49 NE10      30.23S
LITTLE ROCK    SUNNY     66  42  41 E6        30.24S

......OKLAHOMA.......

CITY           SKY/WX    TMP DP  RH WIND       PRES   REMARKS
TULSA          SUNNY     62  43  49 SE3       30.21S
PONCA CITY     SUNNY     65  34  31 SE13      30.21S
MCALESTER      SUNNY     68  44  42 VRB7      30.22R
OKLAHOMA CITY  MOSUNNY   66  42  41 S10G16    30.23R

......IOWA............

CITY           SKY/WX    TMP DP  RH WIND       PRES   REMARKS
DES MOINES     CLOUDY    63  23  21 SW20      30.06F
QUAD CITIES    SUNNY     59  26  28 W17G25    30.08F

......ILLINOIS........

CITY           SKY/WX    TMP DP  RH WIND       PRES   REMARKS
QUINCY         SUNNY     59  29  31 SW13      30.16S
CHICAGO        PTSUNNY   51  29  42 W13       30.05F



USA.gov is the U.S. government's official web portal to all federal, state and local government web resources and services.